Jacksonville, FL

10:26 PM EST on February 21, 2017 (GMT -0500)
Cecil

Weather History for KVQQ - May, 2013

Change the Weather History Date:

Wednesday, May 22, 2013

  Actual Average (KNIP) Record (KNIP)
Temperature  
Mean Temperature 71 °F -  
Max Temperature 80 °F 85 °F 96 °F (1998)
Min Temperature 62 °F 67 °F 61 °F (2002)
Cooling Degree Days 6    
Growing Degree Days 21 (Base 50)    
Moisture  
Dew Point 68 °F    
Average Humidity 95    
Maximum Humidity 100    
Minimum Humidity 74    
Precipitation  
Precipitation 0.00 in - - ()
Sea Level Pressure  
Sea Level Pressure 29.97 in    
Wind  
Wind Speed 1 mph (East)    
Max Wind Speed 8 mph    
Max Gust Speed -    
Visibility 7 miles    
Events Fog , Rain    
Averages and records for this station are not official NWS values.
T = Trace of Precipitation, MM = Missing Value Source: NWS Daily Summary

Daily Weather History Graph

Daily Weather History Graph

Search for Another Location

Airport or City:

Trip Planner

Search our weather history database for the weather conditions in past years. The results will help you decide how hot, cold, wet, or windy it might be!

Date:

Astronomy

May. 22, 2013 Rise Set
Actual Time 6:29 AM EDT 8:18 PM EDT
Civil Twilight 6:03 AM EDT 8:45 PM EDT
Nautical Twilight 5:31 AM EDT 9:17 PM EDT
Astronomical Twilight 4:57 AM EDT 9:51 PM EDT
Moon 5:48 PM EDT 4:21 AM EDT
Length of Visible Light 14h 42m
Length of Day
13h 49m
Waxing Gibbous, 91% of the Moon is Illuminated
May 22
Waxing Gibbous
May 25
Full
May 31
Last Quarter
Jun 8
New
Jun 16
First Quarter

Hourly Weather History & Observations

Time (EDT) Temp. Heat Index Dew Point Humidity Pressure Visibility Wind Dir Wind Speed Gust Speed Precip Events Conditions
12:15 AM 68.0 °F - 68.0 °F 100% 30.00 in 5.0 mi Calm Calm - N/A   Clear
12:35 AM 68.0 °F - 68.0 °F 100% 29.99 in 5.0 mi Calm Calm - N/A   Clear
12:55 AM 66.2 °F - 66.2 °F 100% 29.99 in 7.0 mi Calm Calm - N/A   Clear
1:15 AM 66.2 °F - 66.2 °F 100% 29.99 in 0.2 mi Calm Calm - N/A Fog Fog
1:35 AM 66.2 °F - 66.2 °F 100% 29.98 in 7.0 mi Calm Calm - N/A   Clear
1:55 AM 66.2 °F - 66.2 °F 100% 29.98 in 6.0 mi Calm Calm - N/A   Clear
2:15 AM 66.2 °F - 66.2 °F 100% 29.98 in 4.0 mi Calm Calm - N/A   Clear
2:35 AM 64.4 °F - 64.4 °F 100% 29.97 in 6.0 mi Calm Calm - N/A   Clear
2:55 AM 64.4 °F - 64.4 °F 100% 29.97 in 5.0 mi Calm Calm - N/A   Clear
3:15 AM 64.4 °F - 64.4 °F 100% 29.97 in 9.0 mi Calm Calm - N/A   Clear
3:35 AM 64.4 °F - 64.4 °F 100% 29.97 in 5.0 mi Calm Calm - N/A   Clear
3:55 AM 64.4 °F - 64.4 °F 100% 29.97 in 5.0 mi Calm Calm - N/A   Clear
4:15 AM 64.4 °F - 64.4 °F 100% 29.97 in 0.8 mi Calm Calm - N/A   Mist
4:35 AM 64.4 °F - 64.4 °F 100% 29.97 in 5.0 mi Calm Calm - N/A   Partly Cloudy
4:55 AM 64.4 °F - 64.4 °F 100% 29.97 in 4.0 mi Calm Calm - N/A   Partly Cloudy
5:15 AM 62.6 °F - 62.6 °F 100% 29.97 in 4.0 mi Calm Calm - N/A   Clear
5:35 AM 62.6 °F - 62.6 °F 100% 29.97 in 7.0 mi Calm Calm - N/A   Clear
5:55 AM 62.6 °F - 62.6 °F 100% 29.98 in 2.5 mi Calm Calm - N/A   Clear
6:15 AM 62.6 °F - 62.6 °F 100% 29.97 in 5.0 mi Calm Calm - N/A   Clear
6:35 AM 62.6 °F - 62.6 °F 100% 29.98 in 0.8 mi Calm Calm - N/A   Mist
6:50 AM 62.6 °F - 62.6 °F 100% 29.98 in 5.0 mi Calm Calm - N/A   Clear
7:50 AM 68.0 °F - 68.0 °F 100% 29.99 in 7.0 mi Calm Calm - N/A   Partly Cloudy
8:50 AM 73.4 °F - 71.6 °F 94% 30.00 in 10.0 mi Calm Calm - N/A   Partly Cloudy
9:20 AM 75.2 °F - 71.6 °F 89% 30.00 in 10.0 mi Calm Calm - N/A   Mostly Cloudy
9:50 AM 77.0 °F - 71.6 °F 83% 30.00 in 10.0 mi Calm Calm - N/A   Mostly Cloudy
10:50 AM 78.8 °F - 69.8 °F 74% 30.01 in 10.0 mi Calm Calm - N/A   Mostly Cloudy
11:50 AM 78.8 °F - 69.8 °F 74% 30.01 in 6.0 mi Calm Calm - N/A Rain Light Rain
12:50 PM 71.6 °F - 71.6 °F 100% 30.01 in 5.0 mi East 8.1 mph - N/A Rain Light Rain
1:50 PM 71.6 °F - 71.6 °F 100% 30.00 in 5.0 mi East 5.8 mph - N/A Rain Light Rain
2:50 PM 77.0 °F - 73.4 °F 89% 29.99 in 7.0 mi ENE 5.8 mph - N/A   Mostly Cloudy
3:50 PM 77.0 °F - 69.8 °F 78% 29.97 in 10.0 mi ENE 6.9 mph - N/A   Mostly Cloudy
4:50 PM 80.6 °F 84.6 °F 71.6 °F 74% 29.94 in 10.0 mi East 5.8 mph - N/A   Scattered Clouds
5:50 PM 80.6 °F 84.6 °F 71.6 °F 74% 29.94 in 10.0 mi SSE 5.8 mph - N/A   Scattered Clouds
6:50 PM 78.8 °F - 71.6 °F 78% 29.93 in 10.0 mi SSE 5.8 mph - N/A   Scattered Clouds
7:50 PM 75.2 °F - 71.6 °F 89% 29.94 in 10.0 mi East 5.8 mph - N/A   Partly Cloudy
8:15 PM 75.2 °F - 71.6 °F 89% 29.95 in 10.0 mi Calm Calm - N/A   Clear
8:35 PM 73.4 °F - 69.8 °F 88% 29.95 in 10.0 mi Calm Calm - N/A   Clear
8:55 PM 71.6 °F - 69.8 °F 94% 29.95 in 10.0 mi Calm Calm - N/A   Clear
9:15 PM 71.6 °F - 69.8 °F 94% 29.95 in 10.0 mi Calm Calm - N/A   Clear
9:35 PM 69.8 °F - 69.8 °F 100% 29.95 in 10.0 mi Calm Calm - N/A   Clear
9:55 PM 68.0 °F - 68.0 °F 100% 29.96 in 10.0 mi Calm Calm - N/A   Clear
10:15 PM 68.0 °F - 68.0 °F 100% 29.96 in 8.0 mi Calm Calm - N/A   Clear
10:35 PM 68.0 °F - 68.0 °F 100% 29.96 in 9.0 mi Calm Calm - N/A   Clear
10:55 PM 68.0 °F - 68.0 °F 100% 29.97 in 7.0 mi Calm Calm - N/A   Clear
11:15 PM 66.2 °F - 66.2 °F 100% 29.97 in 7.0 mi Calm Calm - N/A   Clear
11:35 PM 66.2 °F - 66.2 °F 100% 29.97 in 5.0 mi Calm Calm - N/A   Clear
11:55 PM 66.2 °F - 66.2 °F 100% 29.97 in 8.0 mi Calm Calm - N/A   Clear